Location: Unspecified
(0.0000°N, 0.0000°E)
Time: 21:00:47
(UTC+00:00)

H-2A DEB - Visible Passes

Search period start: 29 April 2025 00:00
Search period end: 09 May 2025 00:00
Orbit: 301 x 16884 km, 29.0° (Epoch: 29 November)

Date Brightness Start Highest point End Pass type
(mag) Time Alt. Az. Time Alt. Az. Time Alt. Az.
29 Apr ? 17:15:56 10° NW 18:15:10 50° NNE 19:08:28 15° E visible
29 Apr ? 21:18:00 10° WNW 22:29:11 80° W 22:29:11 80° W visible
30 Apr ? 16:36:22 10° NW 17:25:55 47° NNE 18:30:23 10° E visible
30 Apr ? 20:32:56 10° NW 21:50:42 88° NE 21:54:01 83° ESE visible
01 May ? 01:08:25 10° W 01:14:43 14° W 01:14:43 14° W visible
01 May ? 19:48:53 10° NW 21:07:05 81° NE 21:18:31 66° ESE visible
02 May ? 00:16:55 10° W 00:39:09 24° W 00:39:09 24° W visible
02 May ? 19:05:42 10° NW 20:21:35 74° NE 20:42:40 51° E visible
02 May ? 23:24:40 10° WNW 00:03:15 36° W 00:03:15 36° W visible
03 May ? 18:23:11 10° NW 19:34:12 68° NNE 20:06:27 37° E visible
03 May ? 22:33:10 10° WNW 23:26:58 49° WSW 23:26:58 49° WSW visible
04 May ? 17:41:12 10° NW 18:45:08 62° NNE 19:29:53 25° E visible
04 May ? 21:43:14 10° WNW 22:50:21 63° WSW 22:50:21 63° WSW visible
05 May ? 16:59:35 10° NW 17:54:47 56° NNE 18:52:58 14° E visible
05 May ? 20:55:01 10° WNW 22:11:10 73° SW 22:13:21 72° SSW visible
06 May ? 20:08:18 10° WNW 21:25:33 81° SW 21:36:01 69° SSE visible
07 May ? 00:45:36 10° W 00:56:24 16° WSW 00:56:24 16° WSW visible
07 May ? 19:22:46 10° NW 20:38:00 90° SW 20:58:19 56° SE visible
07 May ? 23:48:31 10° W 00:18:39 27° WSW 00:18:39 27° WSW visible
08 May ? 18:38:09 10° NW 19:48:37 83° NE 20:20:16 42° ESE visible
